| time (UTC) | temp F | wind direction | speed MPH | gust MPH | rain 1hr in | rain 24hr in | rain mn in | humidity % | barometer mb |
| 20260901200108 | 70 | 134 | 3.0 | 9.0 | 0.00 | 0.00 | 0.00 | 74 | 1019.3 |
| 20260901194557 | 70 | 60 | 2.0 | 11.0 | 0.00 | 0.00 | 0.00 | 74 | 1019.4 |
| 20260901193053 | 71 | 195 | 2.0 | 8.0 | 0.00 | 0.00 | 0.00 | 71 | 1019.4 |
| 20260901191600 | 72 | 130 | 2.0 | 10.0 | 0.00 | 0.00 | 0.00 | 67 | 1019.5 |
| 20260901190056 | 74 | 176 | 1.0 | 8.0 | 0.00 | 0.00 | 0.00 | 64 | 1019.4 |
| 20260901184604 | 77 | 0 | 3.0 | 9.0 | 0.00 | 0.00 | 0.00 | 59 | 1019.4 |
| 20260901183108 | 76 | 355 | 1.0 | 3.0 | 0.00 | 0.00 | 0.00 | 56 | 1019.2 |
| 20260901181559 | 75 | 279 | 3.0 | 7.0 | 0.00 | 0.00 | 0.00 | 55 | 1019.0 |
| 20260901180054 | 75 | 242 | 2.0 | 7.0 | 0.00 | 0.00 | 0.00 | 54 | 1018.9 |
| 20260901174603 | 77 | 119 | 1.0 | 6.0 | 0.00 | 0.00 | 0.00 | 52 | 1019.0 |
| 20260901173059 | 74 | 149 | 1.0 | 5.0 | 0.00 | 0.00 | 0.00 | 59 | 1019.2 |
| 20260901171600 | 73 | 28 | 2.0 | 5.0 | 0.00 | 0.00 | 0.00 | 61 | 1019.2 |
| 20260901164557 | 74 | 187 | 1.0 | 5.0 | 0.00 | 0.00 | 0.00 | 59 | 1019.3 |
| 20260901163101 | 73 | 0 | 1.0 | 3.0 | 0.00 | 0.00 | 0.00 | 60 | 1019.4 |
| 20260901161626 | 72 | 0 | 0.0 | 4.0 | 0.00 | 0.00 | 0.00 | 62 | 1019.5 |
| 20260901160051 | 71 | 0 | 1.0 | 3.0 | 0.00 | 0.00 | 0.00 | 63 | 1019.6 |
| 20260901154617 | 70 | 132 | 1.0 | 3.0 | 0.00 | 0.00 | 0.00 | 63 | 1019.6 |
| 20260901153105 | 69 | 28 | 1.0 | 8.0 | 0.00 | 0.00 | 0.00 | 65 | 1019.6 |
| 20260901151556 | 68 | 321 | 1.0 | 6.0 | 0.00 | 0.00 | 0.00 | 68 | 1019.5 |
| 20260901150107 | 68 | 48 | 2.0 | 6.0 | 0.00 | 0.00 | 0.00 | 67 | 1019.2 |
| 20260901144559 | 67 | 133 | 1.0 | 7.0 | 0.00 | 0.00 | 0.00 | 68 | 1019.3 |
| 20260901143058 | 65 | 36 | 2.0 | 8.0 | 0.00 | 0.00 | 0.00 | 70 | 1019.5 |
| 20260901141603 | 64 | 119 | 2.0 | 8.0 | 0.00 | 0.00 | 0.00 | 70 | 1019.9 |
| 20260901140059 | 62 | 306 | 2.0 | 8.0 | 0.00 | 0.00 | 0.00 | 73 | 1019.9 |
| 20260901134557 | 60 | 41 | 4.0 | 11.0 | 0.00 | 0.00 | 0.00 | 74 | 1019.8 |
| 20260901133056 | 59 | 348 | 3.0 | 10.0 | 0.00 | 0.00 | 0.00 | 76 | 1020.0 |
| 20260901131602 | 59 | 42 | 4.0 | 12.0 | 0.00 | 0.00 | 0.00 | 76 | 1020.0 |
| 20260901124556 | 58 | 11 | 3.0 | 9.0 | 0.00 | 0.00 | 0.00 | 77 | 1020.2 |
| 20260901123056 | 58 | 44 | 4.0 | 11.0 | 0.00 | 0.00 | 0.00 | 77 | 1020.1 |
| 20260901121608 | 58 | 21 | 5.0 | 12.0 | 0.00 | 0.00 | 0.00 | 76 | 1020.0 |
| 20260901120110 | 57 | 355 | 5.0 | 12.0 | 0.00 | 0.00 | 0.00 | 76 | 1019.9 |
| 20260901114554 | 57 | 15 | 5.0 | 12.0 | 0.00 | 0.00 | 0.00 | 77 | 1019.8 |
| 20260901113102 | 57 | 50 | 7.0 | 11.0 | 0.00 | 0.00 | 0.00 | 77 | 1019.7 |
| 20260901111603 | 57 | 30 | 6.0 | 12.0 | 0.00 | 0.00 | 0.00 | 77 | 1019.7 |
| 20260901110058 | 57 | 360 | 6.0 | 12.0 | 0.00 | 0.00 | 0.00 | 78 | 1019.6 |
| 20260901104557 | 57 | 13 | 5.0 | 12.0 | 0.00 | 0.00 | 0.00 | 79 | 1019.5 |
| 20260901103100 | 57 | 15 | 7.0 | 12.0 | 0.00 | 0.00 | 0.00 | 79 | 1019.1 |
| 20260901101557 | 56 | 37 | 6.0 | 11.0 | 0.00 | 0.00 | 0.00 | 81 | 1019.1 |
| 20260901100058 | 56 | 41 | 6.0 | 11.0 | 0.00 | 0.00 | 0.00 | 82 | 1019.2 |
| 20260901094559 | 56 | 42 | 4.0 | 10.0 | 0.00 | 0.00 | 0.00 | 83 | 1019.1 |
| 20260901093103 | 56 | 12 | 5.0 | 11.0 | 0.00 | 0.00 | 0.00 | 83 | 1019.1 |
| 20260901091610 | 56 | 36 | 6.0 | 10.0 | 0.00 | 0.00 | 0.00 | 84 | 1019.1 |
| 20260901084606 | 55 | 18 | 4.0 | 9.0 | 0.00 | 0.00 | 0.00 | 86 | 1019.2 |
| 20260901083105 | 55 | 20 | 3.0 | 7.0 | 0.00 | 0.00 | 0.00 | 88 | 1019.2 |
| 20260901081556 | 56 | 28 | 3.0 | 9.0 | 0.00 | 0.00 | 0.00 | 87 | 1019.2 |
| 20260901080104 | 56 | 28 | 5.0 | 10.0 | 0.00 | 0.00 | 0.00 | 88 | 1019.1 |
| 20260901074553 | 55 | 61 | 4.0 | 10.0 | 0.00 | 0.00 | 0.00 | 89 | 1019.2 |
| 20260901073107 | 55 | 18 | 3.0 | 7.0 | 0.00 | 0.00 | 0.00 | 90 | 1019.4 |
| 20260901071557 | 56 | 15 | 4.0 | 10.0 | 0.00 | 0.00 | 0.00 | 90 | 1019.4 |
| 20260901070057 | 56 | 19 | 4.0 | 9.0 | 0.00 | 0.00 | 0.00 | 90 | 1019.3 |
| 20260901064558 | 56 | 17 | 4.0 | 8.0 | 0.00 | 0.00 | 0.00 | 90 | 1019.3 |
| 20260901063059 | 56 | 17 | 2.0 | 5.0 | 0.00 | 0.00 | 0.00 | 90 | 1019.4 |
| 20260901061558 | 56 | 11 | 1.0 | 3.0 | 0.00 | 0.00 | 0.00 | 89 | 1019.5 |
| 20260901060057 | 56 | 43 | 2.0 | 4.0 | 0.00 | 0.00 | 0.00 | 89 | 1019.5 |
| 20260901054556 | 56 | 5 | 2.0 | 4.0 | 0.00 | 0.00 | 0.00 | 89 | 1019.8 |
| 20260901053103 | 56 | 18 | 2.0 | 4.0 | 0.00 | 0.00 | 0.00 | 89 | 1019.8 |
| 20260901051555 | 57 | 26 | 2.0 | 5.0 | 0.00 | 0.00 | 0.00 | 89 | 1019.6 |
| 20260901050105 | 58 | 0 | 0.0 | 2.0 | 0.00 | 0.00 | 0.00 | 89 | 1019.5 |
| 20260901044603 | 57 | 0 | 0.0 | 3.0 | 0.00 | 0.00 | 0.00 | 88 | 1019.5 |
| 20260901043058 | 57 | 0 | 0.0 | 0.0 | 0.00 | 0.00 | 0.00 | 87 | 1019.4 |
| 20260901041558 | 58 | 99 | 1.0 | 3.0 | 0.00 | 0.00 | 0.00 | 87 | 1019.4 |
| 20260901040105 | 58 | 132 | 0.0 | 2.0 | 0.00 | 0.00 | 0.00 | 86 | 1019.5 |
| 20260901034600 | 58 | 0 | 0.0 | 2.0 | 0.00 | 0.00 | 0.00 | 85 | 1019.5 |
| 20260901033055 | 58 | 0 | 0.0 | 2.0 | 0.00 | 0.00 | 0.00 | 85 | 1019.5 |
| 20260901031555 | 58 | 111 | 1.0 | 2.0 | 0.00 | 0.00 | 0.00 | 84 | 1019.4 |
| 20260901030053 | 58 | 81 | 0.0 | 2.0 | 0.00 | 0.00 | 0.00 | 84 | 1019.6 |
| 20260901024601 | 59 | 0 | 0.0 | 1.0 | 0.00 | 0.00 | 0.00 | 83 | 1019.7 |
| 20260901023058 | 59 | 81 | 0.0 | 0.0 | 0.00 | 0.00 | 0.00 | 82 | 1019.7 |
| 20260901021555 | 59 | 0 | 0.0 | 2.0 | 0.00 | 0.00 | 0.00 | 81 | 1019.7 |
| 20260901020057 | 60 | 0 | 0.0 | 3.0 | 0.00 | 0.00 | 0.00 | 80 | 1019.7 |
| 20260901014554 | 60 | 193 | 1.0 | 3.0 | 0.00 | 0.00 | 0.00 | 80 | 1019.8 |
| 20260901013116 | 60 | 186 | 1.0 | 4.0 | 0.00 | 0.00 | 0.00 | 80 | 1019.5 |
| 20260901011556 | 60 | 195 | 1.0 | 4.0 | 0.00 | 0.00 | 0.00 | 79 | 1019.4 |
| 20260901010107 | 61 | 0 | 0.0 | 2.0 | 0.00 | 0.00 | 0.00 | 77 | 1019.6 |
| 20260901004607 | 61 | 0 | 0.0 | 1.0 | 0.00 | 0.00 | 0.00 | 76 | 1019.5 |
| 20260901003059 | 61 | 0 | 0.0 | 2.0 | 0.00 | 0.00 | 0.00 | 75 | 1019.4 |
| 20260901001559 | 62 | 0 | 0.0 | 3.0 | 0.00 | 0.00 | 0.00 | 74 | 1019.4 |
| 20260831234553 | 63 | 194 | 2.0 | 6.0 | 0.00 | 0.00 | 0.00 | 70 | 1019.1 |
| 20260831233055 | 64 | 187 | 1.0 | 4.0 | 0.00 | 0.00 | 0.00 | 68 | 1019.1 |
| 20260831231558 | 65 | 0 | 2.0 | 6.0 | 0.00 | 0.00 | 0.00 | 66 | 1019.3 |
| 20260831230057 | 66 | 236 | 3.0 | 6.0 | 0.00 | 0.00 | 0.00 | 64 | 1019.2 |
| 20260831224601 | 68 | 224 | 2.0 | 8.0 | 0.00 | 0.00 | 0.00 | 61 | 1019.2 |
| 20260831223055 | 68 | 227 | 2.0 | 9.0 | 0.00 | 0.00 | 0.00 | 60 | 1019.3 |
| 20260831221556 | 69 | 202 | 4.0 | 10.0 | 0.00 | 0.00 | 0.00 | 58 | 1019.3 |
| 20260831220057 | 70 | 229 | 3.0 | 12.0 | 0.00 | 0.00 | 0.00 | 56 | 1019.1 |
| 20260831214611 | 70 | 190 | 6.0 | 10.0 | 0.00 | 0.00 | 0.00 | 55 | 1019.3 |
| 20260831213103 | 72 | 218 | 6.0 | 12.0 | 0.00 | 0.00 | 0.00 | 52 | 1019.3 |
| 20260831211556 | 72 | 178 | 4.0 | 11.0 | 0.00 | 0.00 | 0.00 | 52 | 1019.3 |
| 20260831210049 | 71 | 240 | 6.0 | 11.0 | 0.00 | 0.00 | 0.00 | 53 | 1019.4 |
| 20260831204603 | 73 | 234 | 4.0 | 11.0 | 0.00 | 0.00 | 0.00 | 49 | 1019.4 |
| 20260831203102 | 72 | 213 | 7.0 | 15.0 | 0.00 | 0.00 | 0.00 | 48 | 1019.4 |
| 20260831201610 | 76 | 155 | 4.0 | 12.0 | 0.00 | 0.00 | 0.00 | 43 | 1019.4 |